SCP
0 0 0 0 0 0 -0 -0 0 0 0 0 0 0 0 0 0 -0 -0 -0 -0 -0 -0 0 -0 -0 -0 0 0 0 0 0 0 0 0 0 -0 -0 0 0 -0 -0 -0 -0
0 0 0 0 0 0 0 0 -0 -0 0 0 0 0 0 0 0 -0 -0 -0 -0 -0 -0 -0 -0 -0 -0 0 0 -0 0 0 0 0 0 0 0 -0 0 -0 0 0 -0 0
0 0 0 0 0 0 0 0 0 0 0 -0 0 0 -0 0 0 -0 -0 -0 -0 -0 -0 -0 -0 -0 -0 -0 0 -0 -0 0 0 0 0 0 0 -0 -0 -0 0 0 0 0
0 0 0 0 0 0 0 0 0 0 -0 0 0 0 0 0 0 -0 -0 -0 -0 -0 -0 -0 -0 -0 -0 -0 -0 -0 -0 0 0 0 0 0 0 0 0 0 -0 -0 0 0
0 0 0 0 0 0 0 0 0 0 0 0 0 0 0 -0 -0 -0 -0 -0 -0 -0 -0 -0 -0 -0 -0 -0 -0 -0 -0 -0 0 0 0 0 0 0 0 0 0 -0 0 0
0 0 0 0 0 0 0 0 0 0 0 0 0 0 0 -0 -0 0 -0 -0 -0 -0 -0 -0 -0 -0 -0 -0 -0 -0 -0 -0 0 0 0 0 0 0 0 0 0 0 -0 0
0 0 0 0 0 0 0 0 0 0 0 0 0 0 0 0 -0 0 -0 -0 -0 -0 -0 -0 -0 -0 -0 -0 -0 -0 -0 -0 -0 0 0 0 0 0 0 0 0 0 -0 0
0 0 0 0 0 0 0 0 0 0 0 0 0 -0 0 0 0 0 0 -0 -0 -0 -0 -0 -0 -0 -0 -0 -0 -0 -0 -0 -0 -0 -0 0 -0 0 0 0 0 0 0 0
0 0 0 0 0 0 0 0 0 0 0 0 0 -0 -0 0 0 0 0 -0 -0 -0 -0 -0 -0 -0 -0 -0 -0 -0 -0 -0 -0 -0 -0 -0 0 0 0 0 0 0 0 0
0 0 0 0 0 0 0 0 0 0 0 0 0 0 -0 -0 0 0 0 0 0 -0 -0 -0 -0 -0 -0 -0 -0 -0 -0 -0 -0 -0 0 0 0 0 0 0 0 0 0 0
0 0 0 0 0 0 0 0 0 0 0 0 0 0 0 0 0 0 0 0 0 0 -0 -0 -0 -0 -0 -0 -0 -0 -0 -0 -0 0 -0 0 0 0 0 0 0 0 0 0
0 0 0 0 0 0 0 0 0 0 0 0 0 0 0 0 0 0 0 0 0 0 0 0 -0 0 -0 -0 -0 -0 -0 -0 -0 0 0 0 0 -0 0 -0 -0 -0 -0 -0
0 0 0 0 0 0 0 0 0 0 0 0 0 0 0 0 0 0 0 0 0 0 0 0 -0 0 0 -0 -0 -0 -0 -0 0 0 0 0 0 0 0 -0 -0 0 0 -0
0 -0 0 0 0 0 0 0 0 0 0 0 0 0 0 0 0 0 0 0 0 0 0 0 0 -0 0 -0 -0 -0 0 0 0 0 0 0 0 0 0 0 0 -0 -0 -0
0 -0 -0 0 0 0 0 0 0 0 0 0 0 0 0 0 0 0 0 0 0 0 0 0 0 0 0 0 0 0 0 0 0 0 0 0 0 0 0 0 0 0 0 0
0 -0 -0 -0 0 0 0 0 0 0 0 0 0 0 0 0 0 0 0 0 0 0 0 0 0 0 0 0 0 0 0 0 0 0 0 0 0 0 0 0 0 0 0 0
-0 -0 -0 -0 -0 0 0 0 0 0 0 0 0 0 0 0 0 0 0 0 0 0 0 0 0 0 0 0 0 0 0 0 0 0 0 0 0 0 0 0 0 0 0 0
0 0 -0 -0 -0 0 0 0 0 0 0 0 0 0 0 0 0 0 0 0 0 0 0 0 0 0 0 0 0 0 0 0 0 0 0 0 0 0 0 0 0 0 0 0
0 0 0 0 0 -0 0 0 0 0 0 0 0 0 0 0 0 0 0 0 0 0 0 0 0 0 0 0 0 0 0 0 0 0 0 0 0 0 0 0 0 0 0 0
0 0 0 0 0 0 -0 0 0 0 0 0 0 0 0 0 0 0 0 0 0 0 0 0 0 0 0 0 0 0 0 0 0 0 0 0 0 0 0 0 0 0 0 0
0 0 0 0 0 0 0 0 0 0 0 0 0 0 0 0 0 0 0 0 0 0 0 0 0 0 0 0 0 0 0 0 0 0 0 0 0 0 0 0 0 0 0 0
0 0 0 0 0 0 0 0 0 0 0 0 0 0 0 0 0 0 0 0 0 0 0 0 0 0 0 0 0 0 0 0 0 0 0 0 0 0 0 0 0 0 0 0
0 0 0 0 0 0 0 0 0 0 0 0 0 0 0 0 0 0 0 0 0 0 0 0 0 0 0 0 0 0 0 0 0 0 0 0 0 0 0 0 0 0 0 0
0 0 0 0 -0 0 0 0 0 0 0 0 0 0 0 0 0 -0 -0 0 0 0 0 0 0 0 0 0 0 0 0 0 0 0 0 0 0 0 0 0 0 0 0 0
-0 0 0 0 0 0 0 0 0 0 0 0 0 0 0 0 0 0 0 0 0 0 0 0 0 0 0 0 0 0 0 0 0 0 0 0 0 0 0 0 0 0 0 0
-0 0 0 0 0 0 0 0 0 0 0 0 0 0 0 0 0 0 0 0 0 0 0 0 0 0 0 0 0 0 0 0 0 0 0 0 0 0 0 0 0 0 0 0
-0 -0 0 0 0 0 0 0 0 0 0 0 0 0 0 0 0 0 0 0 0 0 0 0 0 0 0 0 0 0 0 0 0 0 0 0 0 0 0 0 0 0 0 0
Wind_Speed_500mb
20 22 16 10 39 35 48 38 14 12 15 13 17 20 21 41 42 46 51 60 68 71 65 57 53 48 38 31 31 26 16 13 12 15 13 15 18 20 16 18 20 22 22 24
11 25 16 20 17 40 44 33 31 12 17 16 9 11 20 47 53 54 59 63 69 70 67 61 55 52 44 35 35 31 21 16 19 21 17 15 20 20 17 18 19 21 18 20
9 19 16 16 40 18 27 36 26 22 33 9 8 14 21 45 61 66 67 68 74 75 70 63 56 54 49 39 37 35 27 21 24 22 20 16 18 21 20 16 15 16 13 13
7 10 11 11 14 29 25 13 27 14 14 17 18 50 53 62 69 68 69 69 71 72 70 63 55 55 48 43 40 39 35 26 27 26 24 20 18 17 15 17 18 23 22 18
3 6 12 11 13 12 7 19 15 23 25 16 38 16 17 62 69 74 76 72 69 67 67 63 59 56 54 49 41 41 41 33 27 31 27 26 19 14 14 20 22 29 27 26
2 4 9 2 25 29 13 12 21 23 18 14 17 12 14 63 72 69 65 67 68 65 66 62 62 59 60 57 49 45 44 37 29 33 30 28 22 18 20 23 25 25 25 23
13 5 13 19 36 29 14 9 40 37 33 30 12 30 71 59 74 75 71 69 65 67 67 62 63 64 64 60 57 42 42 40 33 33 34 28 26 22 24 26 26 27 26 25
6 7 10 31 15 13 15 32 36 41 39 41 49 51 65 63 75 78 72 66 68 69 69 65 64 66 66 65 50 47 44 46 39 33 38 34 30 28 25 27 28 30 29 29
5 5 9 34 15 23 29 38 39 52 60 53 55 59 52 66 74 76 73 73 74 73 73 66 67 69 66 61 56 53 50 50 44 37 40 37 38 34 31 31 31 32 31 30
3 5 25 45 29 29 47 55 61 58 60 47 48 47 60 59 70 67 73 74 80 79 77 75 73 71 66 58 57 58 55 54 48 44 41 42 41 37 35 34 35 35 35 32
10 11 33 5 46 59 73 74 75 71 54 42 39 49 59 62 62 67 75 73 81 87 82 79 77 72 71 67 61 62 60 58 53 50 43 45 42 41 38 31 33 37 37 35
5 15 17 27 50 60 64 73 82 72 59 41 30 36 51 60 65 73 74 76 81 84 79 77 76 75 73 71 66 62 65 65 59 58 54 47 44 43 39 35 30 29 29 29
7 28 38 52 52 39 64 69 74 58 42 42 26 12 39 52 66 67 73 78 81 87 85 75 74 77 76 74 70 67 65 66 65 63 60 59 54 47 44 40 38 36 35 36
42 40 28 22 48 67 67 63 64 47 43 30 25 7 16 39 51 60 72 76 75 83 87 79 72 74 76 77 73 69 67 64 66 65 64 60 60 55 48 44 44 46 45 44
18 32 43 53 53 57 59 55 57 56 51 50 33 20 8 20 42 53 64 71 74 78 85 82 75 71 74 78 76 73 70 70 66 66 65 62 57 57 55 53 50 46 45 49
48 45 46 49 46 56 53 51 57 55 56 49 45 32 17 2 30 50 53 61 67 73 78 83 77 71 73 77 78 76 74 70 70 67 67 67 64 60 59 60 58 55 52 51
43 39 43 38 41 53 49 48 56 52 51 39 41 31 21 6 10 35 52 57 64 65 67 78 79 75 76 77 79 80 79 75 75 73 69 68 66 65 62 61 63 62 57 51
56 57 51 55 51 48 55 49 49 50 43 31 31 29 17 9 4 18 39 53 53 53 58 76 84 80 78 78 79 82 80 77 76 78 77 74 72 68 65 62 61 62 61 57
45 48 45 46 51 56 55 50 48 52 46 34 25 22 20 16 5 8 19 34 46 53 58 67 80 79 75 71 75 76 79 76 73 73 76 75 77 75 73 70 68 64 61 63
26 30 36 41 41 51 59 45 47 50 45 33 19 14 13 13 11 6 11 13 27 46 55 64 73 76 71 68 73 73 73 74 72 69 72 71 70 70 69 69 70 69 63 60
36 33 31 30 38 43 56 48 57 48 33 23 9 16 13 15 16 13 15 16 10 20 42 58 60 66 63 65 70 73 73 70 71 68 68 67 65 62 60 57 57 60 61 57
30 27 27 26 20 35 38 41 47 37 24 14 20 28 34 26 18 15 20 26 24 16 22 38 61 58 60 45 55 68 68 66 67 69 69 71 67 64 59 54 49 49 53 53
47 16 18 24 20 17 34 40 53 37 37 43 40 36 34 38 25 20 15 17 29 32 35 26 24 54 31 42 50 63 65 60 55 56 57 58 59 60 60 57 55 52 51 47
46 38 28 23 27 26 29 25 21 28 26 20 27 20 27 30 24 21 13 12 19 38 28 40 39 70 74 23 41 71 65 49 51 53 47 43 45 51 50 51 50 49 49 49
69 45 39 38 25 24 32 34 23 26 34 34 38 34 23 27 25 17 21 13 15 5 31 35 28 31 50 62 46 51 65 46 40 37 38 37 35 36 42 45 48 49 50 52
63 58 59 51 41 33 32 33 35 34 40 48 51 44 32 33 30 19 12 22 30 16 24 28 14 19 49 47 62 65 44 40 37 36 32 32 29 29 34 34 34 34 36 42
51 46 52 60 54 49 37 24 24 28 36 41 47 47 45 42 42 38 24 22 18 23 31 29 33 24 41 58 53 41 35 31 25 22 20 14 16 17 17 18 20 26 31 31
Wind_Direction_500mb
276 273 306 325 203 200 211 215 185 186 205 242 237 211 198 170 174 177 183 187 188 187 189 191 192 195 192 186 185 190 176 169 158 144 131 104 114 130 97 108 120 122 123 132
302 286 270 270 255 217 211 218 222 188 249 210 274 111 160 170 177 184 192 192 193 192 192 194 194 198 193 189 185 193 185 173 156 150 137 121 108 124 127 126 126 118 133 139
294 341 313 254 239 227 224 215 187 194 224 164 200 205 195 177 188 195 200 196 196 196 194 195 194 198 194 191 186 196 190 181 168 157 149 127 121 113 113 133 137 130 124 150
269 319 207 251 189 199 213 228 231 248 184 193 211 224 212 198 198 202 205 202 199 199 197 196 195 197 193 193 188 197 195 188 177 169 157 147 132 119 110 120 132 125 113 106
228 266 289 316 46 2 156 240 189 207 233 230 222 157 234 208 207 215 208 205 200 198 195 195 195 195 193 196 191 196 199 193 184 179 167 155 151 134 119 129 129 133 120 104
267 230 229 278 323 317 255 218 7 349 301 191 147 164 232 206 209 217 213 207 201 197 195 197 197 196 196 199 199 198 199 194 190 183 180 161 156 145 137 134 136 137 128 122
225 273 286 344 323 317 141 294 327 328 318 305 204 203 212 209 209 220 218 205 204 199 193 195 199 197 199 201 205 194 196 195 195 189 186 175 164 156 150 146 143 141 138 130
197 236 273 1 12 54 277 306 313 315 312 302 280 253 226 215 208 214 216 204 205 198 195 197 200 200 203 205 199 199 198 197 195 191 190 186 180 169 163 163 154 148 146 140
251 287 326 322 306 299 321 317 319 313 312 309 294 258 245 213 204 212 217 206 206 199 195 197 203 204 206 206 201 200 202 198 195 192 193 193 189 187 180 177 177 167 162 154
268 23 325 309 316 326 331 327 323 325 316 310 289 258 239 229 208 215 212 206 204 201 199 198 202 206 209 204 199 200 202 200 196 195 194 197 196 198 194 191 190 190 183 178
275 311 322 195 335 334 331 337 336 342 339 327 301 251 228 223 217 211 208 205 206 205 200 201 201 202 210 207 202 201 202 201 199 197 197 197 201 204 206 206 206 198 197 195
266 261 279 287 316 336 335 328 338 335 337 341 327 261 219 217 223 217 210 205 206 208 207 205 203 202 207 209 205 203 203 202 201 200 200 200 200 204 210 214 214 213 218 215
238 303 292 299 317 334 334 334 343 344 344 335 342 275 209 218 215 214 212 207 207 206 208 209 205 205 207 208 205 206 206 202 202 202 203 206 206 206 207 210 214 217 215 217
265 305 310 322 312 317 325 330 339 348 1 356 354 13 203 208 211 214 215 215 213 211 209 208 208 207 208 207 206 207 210 209 205 205 205 208 213 214 214 212 213 216 213 215
257 267 289 299 307 307 312 326 329 345 356 8 7 20 30 197 208 212 217 215 215 214 211 209 210 210 208 208 206 208 210 212 211 211 211 211 211 218 222 223 222 224 221 218
304 288 279 281 295 290 298 320 322 339 351 360 5 13 14 268 211 205 209 215 214 216 215 210 210 211 208 207 206 209 213 215 214 214 214 215 216 218 222 227 229 230 229 230
270 281 283 278 281 284 294 301 310 323 343 347 360 358 1 358 198 206 199 211 221 224 219 206 207 211 208 207 207 209 213 215 217 219 219 219 222 223 224 228 232 234 234 234
270 272 273 267 268 277 278 279 301 311 328 330 350 350 334 347 162 191 199 205 212 221 224 211 210 213 213 210 209 211 214 217 218 221 223 224 227 229 230 232 234 237 238 239
283 270 270 264 257 262 265 274 287 304 306 306 320 341 341 321 318 167 185 204 209 215 217 214 217 219 218 218 215 214 217 220 220 224 227 229 231 234 235 236 238 240 242 243
323 276 267 256 258 258 258 264 276 285 305 285 292 318 320 312 302 215 163 179 208 221 226 219 216 219 220 222 221 219 221 222 223 225 229 231 233 236 239 241 243 244 243 244
308 304 274 264 281 257 253 261 266 276 297 256 284 360 332 342 316 268 241 220 194 222 227 228 220 213 219 218 224 225 223 223 225 225 229 231 233 235 238 239 241 245 247 245
316 294 270 274 288 243 252 261 261 261 244 253 305 327 328 322 327 298 253 244 240 204 203 210 223 208 207 220 228 226 219 221 228 231 231 234 235 236 236 238 241 243 248 251
11 341 275 275 272 258 236 245 267 249 235 254 280 289 308 311 306 316 251 262 253 243 220 207 195 215 219 204 221 233 224 223 225 234 237 239 239 237 235 236 239 246 254 259
21 12 351 309 282 277 280 289 285 228 233 267 273 296 286 283 285 276 301 284 270 233 221 215 217 208 219 244 223 225 222 208 215 227 232 236 240 243 239 235 237 239 243 250
26 33 24 14 346 308 291 291 291 234 252 259 268 276 276 254 271 252 230 208 91 135 219 206 209 205 195 213 241 236 217 196 200 211 220 228 231 238 243 241 240 241 242 245
25 27 32 32 26 1 326 299 283 260 250 252 260 266 268 251 247 213 191 222 212 137 98 99 29 236 226 213 233 227 195 190 201 205 206 209 212 225 231 235 240 242 244 244
22 21 24 22 15 13 8 336 294 281 268 265 263 265 267 255 235 236 219 199 161 161 142 137 165 183 180 185 181 158 148 146 156 167 174 180 194 203 207 212 222 230 231 232
Wind_Speed_850mb
20 22 16 10 39 35 48 38 14 12 15 13 17 20 21 41 42 46 51 60 68 71 65 57 53 48 38 31 31 26 16 13 12 15 13 15 18 20 16 18 20 22 22 24
11 25 16 20 17 40 44 33 31 12 17 16 9 11 20 47 53 54 59 63 69 70 67 61 55 52 44 35 35 31 21 16 19 21 17 15 20 20 17 18 19 21 18 20
9 19 16 16 40 18 27 36 26 22 33 9 8 14 21 45 61 66 67 68 74 75 70 63 56 54 49 39 37 35 27 21 24 22 20 16 18 21 20 16 15 16 13 13
7 10 11 11 14 29 25 13 27 14 14 17 18 50 53 62 69 68 69 69 71 72 70 63 55 55 48 43 40 39 35 26 27 26 24 20 18 17 15 17 18 23 22 18
3 6 12 11 13 12 7 19 15 23 25 16 38 16 17 62 69 74 76 72 69 67 67 63 59 56 54 49 41 41 41 33 27 31 27 26 19 14 14 20 22 29 27 26
2 4 9 2 25 29 13 12 21 23 18 14 17 12 14 63 72 69 65 67 68 65 66 62 62 59 60 57 49 45 44 37 29 33 30 28 22 18 20 23 25 25 25 23
13 5 13 19 36 29 14 9 40 37 33 30 12 30 71 59 74 75 71 69 65 67 67 62 63 64 64 60 57 42 42 40 33 33 34 28 26 22 24 26 26 27 26 25
6 7 10 31 15 13 15 32 36 41 39 41 49 51 65 63 75 78 72 66 68 69 69 65 64 66 66 65 50 47 44 46 39 33 38 34 30 28 25 27 28 30 29 29
5 5 9 34 15 23 29 38 39 52 60 53 55 59 52 66 74 76 73 73 74 73 73 66 67 69 66 61 56 53 50 50 44 37 40 37 38 34 31 31 31 32 31 30
3 5 25 45 29 29 47 55 61 58 60 47 48 47 60 59 70 67 73 74 80 79 77 75 73 71 66 58 57 58 55 54 48 44 41 42 41 37 35 34 35 35 35 32
10 11 33 5 46 59 73 74 75 71 54 42 39 49 59 62 62 67 75 73 81 87 82 79 77 72 71 67 61 62 60 58 53 50 43 45 42 41 38 31 33 37 37 35
5 15 17 27 50 60 64 73 82 72 59 41 30 36 51 60 65 73 74 76 81 84 79 77 76 75 73 71 66 62 65 65 59 58 54 47 44 43 39 35 30 29 29 29
7 28 38 52 52 39 64 69 74 58 42 42 26 12 39 52 66 67 73 78 81 87 85 75 74 77 76 74 70 67 65 66 65 63 60 59 54 47 44 40 38 36 35 36
42 40 28 22 48 67 67 63 64 47 43 30 25 7 16 39 51 60 72 76 75 83 87 79 72 74 76 77 73 69 67 64 66 65 64 60 60 55 48 44 44 46 45 44
18 32 43 53 53 57 59 55 57 56 51 50 33 20 8 20 42 53 64 71 74 78 85 82 75 71 74 78 76 73 70 70 66 66 65 62 57 57 55 53 50 46 45 49
48 45 46 49 46 56 53 51 57 55 56 49 45 32 17 2 30 50 53 61 67 73 78 83 77 71 73 77 78 76 74 70 70 67 67 67 64 60 59 60 58 55 52 51
43 39 43 38 41 53 49 48 56 52 51 39 41 31 21 6 10 35 52 57 64 65 67 78 79 75 76 77 79 80 79 75 75 73 69 68 66 65 62 61 63 62 57 51
56 57 51 55 51 48 55 49 49 50 43 31 31 29 17 9 4 18 39 53 53 53 58 76 84 80 78 78 79 82 80 77 76 78 77 74 72 68 65 62 61 62 61 57
45 48 45 46 51 56 55 50 48 52 46 34 25 22 20 16 5 8 19 34 46 53 58 67 80 79 75 71 75 76 79 76 73 73 76 75 77 75 73 70 68 64 61 63
26 30 36 41 41 51 59 45 47 50 45 33 19 14 13 13 11 6 11 13 27 46 55 64 73 76 71 68 73 73 73 74 72 69 72 71 70 70 69 69 70 69 63 60
36 33 31 30 38 43 56 48 57 48 33 23 9 16 13 15 16 13 15 16 10 20 42 58 60 66 63 65 70 73 73 70 71 68 68 67 65 62 60 57 57 60 61 57
30 27 27 26 20 35 38 41 47 37 24 14 20 28 34 26 18 15 20 26 24 16 22 38 61 58 60 45 55 68 68 66 67 69 69 71 67 64 59 54 49 49 53 53
47 16 18 24 20 17 34 40 53 37 37 43 40 36 34 38 25 20 15 17 29 32 35 26 24 54 31 42 50 63 65 60 55 56 57 58 59 60 60 57 55 52 51 47
46 38 28 23 27 26 29 25 21 28 26 20 27 20 27 30 24 21 13 12 19 38 28 40 39 70 74 23 41 71 65 49 51 53 47 43 45 51 50 51 50 49 49 49
69 45 39 38 25 24 32 34 23 26 34 34 38 34 23 27 25 17 21 13 15 5 31 35 28 31 50 62 46 51 65 46 40 37 38 37 35 36 42 45 48 49 50 52
63 58 59 51 41 33 32 33 35 34 40 48 51 44 32 33 30 19 12 22 30 16 24 28 14 19 49 47 62 65 44 40 37 36 32 32 29 29 34 34 34 34 36 42
51 46 52 60 54 49 37 24 24 28 36 41 47 47 45 42 42 38 24 22 18 23 31 29 33 24 41 58 53 41 35 31 25 22 20 14 16 17 17 18 20 26 31 31
Wind_Direction_850mb
276 273 306 325 203 200 211 215 185 186 205 242 237 211 198 170 174 177 183 187 188 187 189 191 192 195 192 186 185 190 176 169 158 144 131 104 114 130 97 108 120 122 123 132
302 286 270 270 255 217 211 218 222 188 249 210 274 111 160 170 177 184 192 192 193 192 192 194 194 198 193 189 185 193 185 173 156 150 137 121 108 124 127 126 126 118 133 139
294 341 313 254 239 227 224 215 187 194 224 164 200 205 195 177 188 195 200 196 196 196 194 195 194 198 194 191 186 196 190 181 168 157 149 127 121 113 113 133 137 130 124 150
269 319 207 251 189 199 213 228 231 248 184 193 211 224 212 198 198 202 205 202 199 199 197 196 195 197 193 193 188 197 195 188 177 169 157 147 132 119 110 120 132 125 113 106
228 266 289 316 46 2 156 240 189 207 233 230 222 157 234 208 207 215 208 205 200 198 195 195 195 195 193 196 191 196 199 193 184 179 167 155 151 134 119 129 129 133 120 104
267 230 229 278 323 317 255 218 7 349 301 191 147 164 232 206 209 217 213 207 201 197 195 197 197 196 196 199 199 198 199 194 190 183 180 161 156 145 137 134 136 137 128 122
225 273 286 344 323 317 141 294 327 328 318 305 204 203 212 209 209 220 218 205 204 199 193 195 199 197 199 201 205 194 196 195 195 189 186 175 164 156 150 146 143 141 138 130
197 236 273 1 12 54 277 306 313 315 312 302 280 253 226 215 208 214 216 204 205 198 195 197 200 200 203 205 199 199 198 197 195 191 190 186 180 169 163 163 154 148 146 140
251 287 326 322 306 299 321 317 319 313 312 309 294 258 245 213 204 212 217 206 206 199 195 197 203 204 206 206 201 200 202 198 195 192 193 193 189 187 180 177 177 167 162 154
268 23 325 309 316 326 331 327 323 325 316 310 289 258 239 229 208 215 212 206 204 201 199 198 202 206 209 204 199 200 202 200 196 195 194 197 196 198 194 191 190 190 183 178
275 311 322 195 335 334 331 337 336 342 339 327 301 251 228 223 217 211 208 205 206 205 200 201 201 202 210 207 202 201 202 201 199 197 197 197 201 204 206 206 206 198 197 195
266 261 279 287 316 336 335 328 338 335 337 341 327 261 219 217 223 217 210 205 206 208 207 205 203 202 207 209 205 203 203 202 201 200 200 200 200 204 210 214 214 213 218 215
238 303 292 299 317 334 334 334 343 344 344 335 342 275 209 218 215 214 212 207 207 206 208 209 205 205 207 208 205 206 206 202 202 202 203 206 206 206 207 210 214 217 215 217
265 305 310 322 312 317 325 330 339 348 1 356 354 13 203 208 211 214 215 215 213 211 209 208 208 207 208 207 206 207 210 209 205 205 205 208 213 214 214 212 213 216 213 215
257 267 289 299 307 307 312 326 329 345 356 8 7 20 30 197 208 212 217 215 215 214 211 209 210 210 208 208 206 208 210 212 211 211 211 211 211 218 222 223 222 224 221 218
304 288 279 281 295 290 298 320 322 339 351 360 5 13 14 268 211 205 209 215 214 216 215 210 210 211 208 207 206 209 213 215 214 214 214 215 216 218 222 227 229 230 229 230
270 281 283 278 281 284 294 301 310 323 343 347 360 358 1 358 198 206 199 211 221 224 219 206 207 211 208 207 207 209 213 215 217 219 219 219 222 223 224 228 232 234 234 234
270 272 273 267 268 277 278 279 301 311 328 330 350 350 334 347 162 191 199 205 212 221 224 211 210 213 213 210 209 211 214 217 218 221 223 224 227 229 230 232 234 237 238 239
283 270 270 264 257 262 265 274 287 304 306 306 320 341 341 321 318 167 185 204 209 215 217 214 217 219 218 218 215 214 217 220 220 224 227 229 231 234 235 236 238 240 242 243
323 276 267 256 258 258 258 264 276 285 305 285 292 318 320 312 302 215 163 179 208 221 226 219 216 219 220 222 221 219 221 222 223 225 229 231 233 236 239 241 243 244 243 244
308 304 274 264 281 257 253 261 266 276 297 256 284 360 332 342 316 268 241 220 194 222 227 228 220 213 219 218 224 225 223 223 225 225 229 231 233 235 238 239 241 245 247 245
316 294 270 274 288 243 252 261 261 261 244 253 305 327 328 322 327 298 253 244 240 204 203 210 223 208 207 220 228 226 219 221 228 231 231 234 235 236 236 238 241 243 248 251
11 341 275 275 272 258 236 245 267 249 235 254 280 289 308 311 306 316 251 262 253 243 220 207 195 215 219 204 221 233 224 223 225 234 237 239 239 237 235 236 239 246 254 259
21 12 351 309 282 277 280 289 285 228 233 267 273 296 286 283 285 276 301 284 270 233 221 215 217 208 219 244 223 225 222 208 215 227 232 236 240 243 239 235 237 239 243 250
26 33 24 14 346 308 291 291 291 234 252 259 268 276 276 254 271 252 230 208 91 135 219 206 209 205 195 213 241 236 217 196 200 211 220 228 231 238 243 241 240 241 242 245
25 27 32 32 26 1 326 299 283 260 250 252 260 266 268 251 247 213 191 222 212 137 98 99 29 236 226 213 233 227 195 190 201 205 206 209 212 225 231 235 240 242 244 244
22 21 24 22 15 13 8 336 294 281 268 265 263 265 267 255 235 236 219 199 161 161 142 137 165 183 180 185 181 158 148 146 156 167 174 180 194 203 207 212 222 230 231 232